When you browse on this site, cookies collect data to enhance your experience and personalize the content and advertising you see.
Visit our Privacy Policy to learn more. By continuing to use the site, you agree to this use of cookies and data.
  • In Belgien
  • Länderverzeichnis
  • Für 7 Tage
  • Wassertemperatur
  • Satellitenkarten
  • Wetterkarte
  • Widgets
  • user-avatar
    Anmelden

    Stündliche Wetter Gremyachiy Kolodez

    Heute, 19 Juni, Mittwoch

    Zeit Temperatur Niederschläge Wind Luftdruck Luftfeuchtigkeit
    00:00 +18°C° 0.2 mm 3 m/S 743 mmHg 92%
    01:00 +18°C° 0 mm 3 m/S 743 mmHg 92%
    02:00 +17°C° 0 mm 3 m/S 743 mmHg 92%
    03:00 +17°C° 0 mm 3 m/S 744 mmHg 92%
    04:00 +17°C° 0 mm 3 m/S 744 mmHg 92%
    05:00 +17°C° 0 mm 3 m/S 744 mmHg 91%
    06:00 +18°C° 0 mm 3 m/S 744 mmHg 90%
    07:00 +19°C° 0 mm 3 m/S 745 mmHg 85%
    08:00 +21°C° 0 mm 3 m/S 745 mmHg 79%
    09:00 +24°C° 0 mm 2 m/S 745 mmHg 74%
    10:00 +25°C° 0.3 mm 2 m/S 745 mmHg 68%
    11:00 +26°C° 0.3 mm 2 m/S 745 mmHg 63%
    12:00 +26°C° 0.3 mm 2 m/S 745 mmHg 57%
    13:00 +27°C° 0.1 mm 2 m/S 745 mmHg 57%
    14:00 +27°C° 0.1 mm 2 m/S 745 mmHg 58%
    15:00 +27°C° 0.1 mm 2 m/S 745 mmHg 58%
    16:00 +26°C° 0.2 mm 2 m/S 745 mmHg 63%
    17:00 +26°C° 0.2 mm 3 m/S 745 mmHg 68%
    18:00 +25°C° 0.2 mm 3 m/S 745 mmHg 72%
    19:00 +24°C° 0 mm 2 m/S 745 mmHg 76%
    20:00 +21°C° 0 mm 2 m/S 745 mmHg 79%
    21:00 +20°C° 0 mm 2 m/S 745 mmHg 83%
    22:00 +19°C° 0 mm 2 m/S 745 mmHg 82%
    23:00 +19°C° 0 mm 1 m/S 746 mmHg 81%

    Morgen, 20 Juni, Donnerstag

    Zeit Temperatur Niederschläge Wind Luftdruck Luftfeuchtigkeit
    00:00 +18°C° 0 mm 1 m/S 746 mmHg 81%
    01:00 +18°C° 0 mm 1 m/S 746 mmHg 81%
    02:00 +16°C° 0 mm 1 m/S 746 mmHg 81%
    03:00 +16°C° 0 mm 1 m/S 746 mmHg 81%
    04:00 +16°C° 0 mm 1 m/S 746 mmHg 82%
    05:00 +18°C° 0 mm 1 m/S 747 mmHg 82%
    06:00 +19°C° 0 mm 1 m/S 747 mmHg 83%
    07:00 +20°C° 0 mm 1 m/S 747 mmHg 77%
    08:00 +22°C° 0 mm 1 m/S 747 mmHg 72%
    09:00 +23°C° 0 mm 1 m/S 747 mmHg 67%
    10:00 +24°C° 0 mm 1 m/S 747 mmHg 63%
    11:00 +25°C° 0 mm 2 m/S 747 mmHg 59%
    12:00 +27°C° 0 mm 2 m/S 747 mmHg 55%
    13:00 +27°C° 0 mm 2 m/S 747 mmHg 54%
    14:00 +27°C° 0 mm 2 m/S 747 mmHg 53%
    15:00 +28°C° 0 mm 2 m/S 747 mmHg 51%
    16:00 +27°C° 0 mm 2 m/S 746 mmHg 55%
    17:00 +27°C° 0 mm 2 m/S 746 mmHg 58%
    18:00 +27°C° 0 mm 1 m/S 746 mmHg 62%
    19:00 +25°C° 0 mm 1 m/S 746 mmHg 66%
    20:00 +23°C° 0 mm 1 m/S 746 mmHg 70%
    21:00 +22°C° 0 mm 1 m/S 746 mmHg 73%
    22:00 +21°C° 0 mm 1 m/S 747 mmHg 76%
    23:00 +20°C° 0 mm 1 m/S 747 mmHg 78%

    übermorgen, 21 Juni, Freitag

    Zeit Temperatur Niederschläge Wind Luftdruck Luftfeuchtigkeit
    00:00 +19°C° 0 mm 1 m/S 747 mmHg 80%
    01:00 +19°C° 0 mm 1 m/S 747 mmHg 81%
    02:00 +19°C° 0 mm 1 m/S 747 mmHg 81%
    03:00 +18°C° 0 mm 1 m/S 747 mmHg 82%
    04:00 +19°C° 0 mm 1 m/S 747 mmHg 82%
    05:00 +20°C° 0 mm 1 m/S 747 mmHg 83%
    06:00 +20°C° 0 mm 1 m/S 748 mmHg 83%
    07:00 +22°C° 0 mm 1 m/S 748 mmHg 78%
    08:00 +23°C° 0 mm 2 m/S 748 mmHg 74%
    09:00 +25°C° 0 mm 2 m/S 748 mmHg 69%
    10:00 +26°C° 0 mm 2 m/S 748 mmHg 65%
    11:00 +27°C° 0 mm 2 m/S 748 mmHg 60%
    12:00 +27°C° 0 mm 3 m/S 748 mmHg 56%
    13:00 +28°C° 0 mm 3 m/S 748 mmHg 56%
    14:00 +28°C° 0 mm 2 m/S 748 mmHg 55%
    15:00 +28°C° 0 mm 2 m/S 747 mmHg 55%
    16:00 +28°C° 0 mm 2 m/S 747 mmHg 58%
    17:00 +28°C° 0 mm 2 m/S 747 mmHg 61%
    18:00 +27°C° 0 mm 1 m/S 747 mmHg 64%
    19:00 +26°C° 0 mm 1 m/S 747 mmHg 67%
    20:00 +24°C° 0 mm 1 m/S 747 mmHg 69%
    21:00 +22°C° 0 mm 1 m/S 747 mmHg 72%
    22:00 +21°C° 0 mm 1 m/S 747 mmHg 73%
    23:00 +21°C° 0 mm 1 m/S 747 mmHg 74%

    22 Juni, Samstag

    Zeit Temperatur Niederschläge Wind Luftdruck Luftfeuchtigkeit
    00:00 +20°C° 0 mm 1 m/S 747 mmHg 76%
    01:00 +20°C° 0 mm 1 m/S 747 mmHg 77%
    02:00 +19°C° 0 mm 1 m/S 747 mmHg 78%
    03:00 +19°C° 0 mm 1 m/S 747 mmHg 80%
    04:00 +20°C° 0 mm 1 m/S 748 mmHg 80%
    05:00 +20°C° 0 mm 1 m/S 748 mmHg 81%
    06:00 +21°C° 0 mm 1 m/S 748 mmHg 81%
    07:00 +22°C° 0 mm 1 m/S 748 mmHg 77%
    08:00 +24°C° 0 mm 2 m/S 748 mmHg 72%
    09:00 +26°C° 0 mm 2 m/S 748 mmHg 68%
    10:00 +27°C° 0 mm 2 m/S 748 mmHg 63%
    11:00 +27°C° 0 mm 3 m/S 748 mmHg 58%
    12:00 +28°C° 0 mm 3 m/S 748 mmHg 53%
    13:00 +29°C° 0 mm 3 m/S 748 mmHg 53%
    14:00 +29°C° 0 mm 3 m/S 748 mmHg 52%
    15:00 +29°C° 0 mm 3 m/S 747 mmHg 52%
    16:00 +29°C° 0 mm 3 m/S 747 mmHg 55%
    17:00 +29°C° 0 mm 2 m/S 747 mmHg 59%
    18:00 +28°C° 0 mm 2 m/S 747 mmHg 62%
    19:00 +26°C° 0 mm 1 m/S 747 mmHg 65%
    20:00 +25°C° 0 mm 1 m/S 747 mmHg 68%
    21:00 +23°C° 0 mm 1 m/S 747 mmHg 70%
    22:00 +22°C° 0 mm 1 m/S 747 mmHg 72%
    23:00 +21°C° 0 mm 1 m/S 747 mmHg 74%

    23 Juni, Sonntag

    Zeit Temperatur Niederschläge Wind Luftdruck Luftfeuchtigkeit
    00:00 +21°C° 0 mm 1 m/S 747 mmHg 75%
    01:00 +20°C° 0 mm 1 m/S 748 mmHg 77%
    02:00 +20°C° 0 mm 1 m/S 748 mmHg 79%
    03:00 +20°C° 0 mm 1 m/S 748 mmHg 80%
    04:00 +20°C° 0 mm 1 m/S 748 mmHg 80%
    05:00 +21°C° 0 mm 1 m/S 748 mmHg 80%
    06:00 +22°C° 0 mm 1 m/S 748 mmHg 80%
    07:00 +23°C° 0 mm 1 m/S 748 mmHg 75%
    08:00 +25°C° 0 mm 1 m/S 748 mmHg 69%
    09:00 +26°C° 0 mm 1 m/S 748 mmHg 64%
    10:00 +27°C° 0 mm 2 m/S 748 mmHg 60%
    11:00 +28°C° 0 mm 2 m/S 748 mmHg 55%
    12:00 +29°C° 0 mm 2 m/S 748 mmHg 50%
    13:00 +29°C° 0 mm 2 m/S 748 mmHg 51%
    14:00 +29°C° 0 mm 2 m/S 748 mmHg 51%
    15:00 +30°C° 0 mm 2 m/S 748 mmHg 51%
    16:00 +29°C° 0 mm 2 m/S 747 mmHg 54%
    17:00 +29°C° 0 mm 2 m/S 747 mmHg 57%
    18:00 +29°C° 0 mm 1 m/S 747 mmHg 60%
    19:00 +27°C° 0 mm 1 m/S 747 mmHg 62%
    20:00 +26°C° 0 mm 1 m/S 747 mmHg 65%
    21:00 +24°C° 0 mm 1 m/S 747 mmHg 68%
    22:00 +23°C° 0 mm 1 m/S 747 mmHg 69%
    23:00 +23°C° 0 mm 2 m/S 747 mmHg 70%

    24 Juni, Montag

    Zeit Temperatur Niederschläge Wind Luftdruck Luftfeuchtigkeit
    00:00 +21°C° 0 mm 2 m/S 747 mmHg 71%
    01:00 +21°C° 0 mm 2 m/S 747 mmHg 72%
    02:00 +20°C° 0 mm 2 m/S 747 mmHg 73%
    03:00 +20°C° 0 mm 2 m/S 747 mmHg 74%
    04:00 +20°C° 0 mm 2 m/S 747 mmHg 76%
    05:00 +20°C° 0 mm 2 m/S 747 mmHg 78%
    06:00 +21°C° 0 mm 2 m/S 747 mmHg 79%
    07:00 +23°C° 0 mm 2 m/S 747 mmHg 75%
    08:00 +25°C° 0 mm 2 m/S 747 mmHg 70%
    09:00 +27°C° 0 mm 3 m/S 747 mmHg 65%
    10:00 +28°C° 0 mm 3 m/S 747 mmHg 61%
    11:00 +29°C° 0 mm 4 m/S 747 mmHg 58%
    12:00 +30°C° 0 mm 4 m/S 747 mmHg 54%
    13:00 +30°C° 0.2 mm 4 m/S 747 mmHg 54%
    14:00 +30°C° 0.2 mm 3 m/S 746 mmHg 53%
    15:00 +31°C° 0.2 mm 3 m/S 746 mmHg 53%
    16:00 +30°C° 0.3 mm 3 m/S 746 mmHg 57%
    17:00 +30°C° 0.3 mm 3 m/S 746 mmHg 62%
    18:00 +29°C° 0.3 mm 2 m/S 745 mmHg 66%
    19:00 +28°C° 0.3 mm 2 m/S 745 mmHg 68%
    20:00 +26°C° 0.3 mm 2 m/S 745 mmHg 71%
    21:00 +24°C° 0.3 mm 2 m/S 745 mmHg 73%
    22:00 +23°C° 0.1 mm 2 m/S 745 mmHg 75%
    23:00 +23°C° 0.1 mm 2 m/S 745 mmHg 77%
    Mehr zeigen